contact:dominique.lefevre@mio.osupytheas.fr, maurice.libes@osupytheas.fr, didier.mallarino@osupytheas.fr
Project:EMSO http://www.emso-fr.org/EMSO-France
Depth: 2436.0 m
Title:EMSO Ligure Ouest : Data MII capteur AQUADOPP
Date,Latitude,Longitude,X_East,Y_North,Z_Up,Amplitude_X,Amplitude_Y,Amplitude_Z,Batterie,SoundSpeed,Heading,Pitch,Roll,Pressure,TIS,Speed,Direction
, degrees North, degrees East, m.s-1, m.s-1,m.s-1, 1, 1, 1, Volt, m.s-1, degree, degree, degree, dbar, degree_C, m.s-1, degree
2020-06-21T00:04:03,42.805,6.029,0.033,-0.018,-0.031,103.0,107.0,101.0,13.3,1505.2,325.7,-0.7,1.8,2470.399,13.3,0.037,118.6
2020-06-21T00:07:03,42.805,6.029,0.052,-0.004,-0.009,102.0,108.0,101.0,13.3,1505.3,324.3,-0.7,1.8,2470.353,13.31,0.052,94.4
2020-06-21T00:10:03,42.805,6.029,0.047,-0.003,-0.002,105.0,108.0,101.0,13.4,1505.3,325.6,-0.7,1.8,2470.331,13.31,0.047,93.6
2020-06-21T00:13:03,42.805,6.029,0.051,-0.006,0.019,104.0,108.0,101.0,13.3,1505.3,326.1,-0.7,1.8,2470.328,13.32,0.051,96.7
2020-06-21T00:16:03,42.805,6.029,0.05,-0.008,-0.005,104.0,106.0,101.0,13.4,1505.3,326.0,-0.7,1.9,2470.376,13.32,0.05,99.1
2020-06-21T00:19:03,42.805,6.029,0.048,-0.025,-0.022,105.0,106.0,101.0,13.4,1505.3,325.0,-0.7,1.9,2470.33,13.32,0.054,117.5
2020-06-21T00:22:03,42.805,6.029,0.059,-0.029,0.0,105.0,107.0,101.0,13.4,1505.3,323.9,-0.7,1.8,2470.369,13.32,0.065,116.2
2020-06-21T00:25:03,42.805,6.029,0.033,-0.027,-0.019,104.0,106.0,101.0,13.4,1505.3,325.8,-0.7,1.8,2470.352,13.32,0.042,129.3
2020-06-21T00:28:03,42.805,6.029,0.066,-0.022,-0.004,104.0,108.0,101.0,13.3,1505.3,326.8,-0.7,1.8,2470.319,13.32,0.069,108.4
2020-06-21T00:31:03,42.805,6.029,0.054,-0.023,0.008,104.0,105.0,101.0,13.4,1505.3,327.2,-0.7,1.8,2470.364,13.32,0.058,113.1
2020-06-21T00:34:03,42.805,6.029,0.048,-0.022,-0.005,102.0,107.0,102.0,13.3,1505.3,322.9,-0.7,1.8,2470.381,13.32,0.052,114.6
2020-06-21T00:37:03,42.805,6.029,0.036,-0.009,-0.039,104.0,105.0,101.0,13.4,1505.3,326.6,-0.7,1.8,2470.333,13.32,0.037,104.0
2020-06-21T00:40:03,42.805,6.029,0.063,-0.009,0.007,104.0,107.0,101.0,13.4,1505.3,326.1,-0.7,1.8,2470.373,13.32,0.063,98.1
2020-06-21T00:43:03,42.805,6.029,0.072,-0.011,0.004,103.0,108.0,102.0,13.4,1505.3,323.5,-0.7,1.8,2470.334,13.32,0.072,98.7
2020-06-21T00:46:03,42.805,6.029,0.046,-0.03,0.008,103.0,106.0,101.0,13.4,1505.3,326.0,-0.7,1.8,2470.384,13.32,0.054,123.1
2020-06-21T00:49:03,42.805,6.029,0.043,-0.002,-0.002,104.0,108.0,101.0,13.4,1505.3,324.7,-0.7,1.8,2470.329,13.32,0.043,92.7
2020-06-21T00:52:03,42.805,6.029,0.026,-0.02,-0.034,104.0,106.0,101.0,13.4,1505.3,327.9,-0.7,1.8,2470.314,13.32,0.032,127.6
2020-06-21T00:55:03,42.805,6.029,0.038,-0.018,0.013,105.0,106.0,101.0,13.4,1505.3,326.0,-0.7,1.8,2470.275,13.32,0.042,115.3
2020-06-21T00:58:03,42.805,6.029,0.018,-0.006,-0.012,105.0,108.0,100.0,13.3,1505.3,327.0,-0.7,1.8,2470.345,13.32,0.018,108.4
2020-06-21T01:04:03,42.805,6.029,0.05,-0.019,0.013,105.0,109.0,102.0,13.4,1505.2,325.6,-0.7,1.8,2470.367,13.3,0.053,110.8
2020-06-21T01:07:04,42.805,6.029,0.05,-0.018,-0.012,104.0,107.0,102.0,13.4,1505.3,327.6,-0.7,1.8,2470.348,13.31,0.053,109.8
2020-06-21T01:10:03,42.805,6.029,0.056,-0.028,0.022,104.0,106.0,100.0,13.4,1505.3,327.2,-0.7,1.9,2470.316,13.31,0.062,116.6
2020-06-21T01:13:03,42.805,6.029,0.059,-0.015,0.019,105.0,107.0,101.0,13.4,1505.3,327.4,-0.7,1.8,2470.341,13.32,0.06,104.3
2020-06-21T01:16:03,42.805,6.029,0.063,-0.032,-0.01,104.0,106.0,101.0,13.3,1505.3,326.9,-0.7,1.8,2470.304,13.32,0.07,116.9
2020-06-21T01:19:03,42.805,6.029,0.043,-0.022,-0.028,103.0,107.0,101.0,13.4,1505.3,325.6,-0.7,1.8,2470.323,13.32,0.048,117.1
2020-06-21T01:22:03,42.805,6.029,0.05,-0.029,-0.019,105.0,107.0,100.0,13.4,1505.3,323.8,-0.7,1.8,2470.294,13.32,0.057,120.1
2020-06-21T01:25:03,42.805,6.029,0.04,-0.005,0.016,104.0,107.0,100.0,13.3,1505.3,327.2,-0.7,1.9,2470.345,13.32,0.04,97.1
2020-06-21T01:28:03,42.805,6.029,0.045,-0.004,-0.005,105.0,107.0,101.0,13.3,1505.3,325.3,-0.7,1.8,2470.26,13.32,0.045,95.1
2020-06-21T01:31:03,42.805,6.029,0.026,-0.011,-0.015,105.0,106.0,101.0,13.3,1505.3,327.9,-0.7,1.8,2470.314,13.32,0.028,112.9
2020-06-21T01:34:03,42.805,6.029,0.048,-0.006,-0.013,104.0,107.0,101.0,13.4,1505.3,328.0,-0.7,1.9,2470.321,13.32,0.048,97.1
2020-06-21T01:37:03,42.805,6.029,0.045,-0.027,0.008,104.0,106.0,101.0,13.4,1505.3,328.4,-0.7,1.8,2470.305,13.32,0.052,121.0
2020-06-21T01:40:03,42.805,6.029,0.057,-0.017,-0.003,103.0,108.0,101.0,13.4,1505.3,327.5,-0.7,1.9,2470.316,13.32,0.059,106.6
2020-06-21T01:43:03,42.805,6.029,0.051,-0.002,-0.043,105.0,107.0,101.0,13.4,1505.3,326.1,-0.7,1.8,2470.295,13.32,0.051,92.2
2020-06-21T01:46:03,42.805,6.029,0.041,-0.008,0.002,103.0,108.0,102.0,13.3,1505.3,326.6,-0.7,1.8,2470.336,13.32,0.041,101.0
2020-06-21T01:49:03,42.805,6.029,0.067,-0.004,0.027,103.0,106.0,101.0,13.4,1505.3,327.3,-0.7,1.8,2470.309,13.32,0.067,93.4
2020-06-21T01:52:03,42.805,6.029,0.069,-0.01,0.015,104.0,107.0,100.0,13.4,1505.3,326.7,-0.7,1.8,2470.334,13.32,0.069,98.2
2020-06-21T01:55:03,42.805,6.029,0.051,-0.026,0.017,103.0,108.0,100.0,13.3,1505.3,325.7,-0.7,1.8,2470.328,13.32,0.057,117.0
2020-06-21T01:58:03,42.805,6.029,0.047,-0.018,-0.007,104.0,106.0,102.0,13.4,1505.3,325.1,-0.7,1.8,2470.299,13.32,0.05,111.0
2020-06-21T02:04:03,42.805,6.029,0.053,-0.026,0.002,104.0,105.0,102.0,13.4,1505.2,324.0,-0.7,1.8,2470.295,13.3,0.059,116.1
2020-06-21T02:07:03,42.805,6.029,0.056,-0.015,0.019,103.0,106.0,101.0,13.4,1505.3,324.9,-0.7,1.8,2470.321,13.31,0.057,105.0
2020-06-21T02:10:03,42.805,6.029,0.036,-0.025,-0.017,103.0,106.0,101.0,13.4,1505.3,323.9,-0.7,1.8,2470.342,13.31,0.043,124.8
2020-06-21T02:13:03,42.805,6.029,0.076,-0.031,-0.025,104.0,104.0,100.0,13.3,1505.3,323.6,-0.7,1.8,2470.313,13.32,0.082,112.2
2020-06-21T02:16:03,42.805,6.029,0.055,-0.037,-0.011,103.0,106.0,101.0,13.4,1505.3,324.3,-0.7,1.8,2470.32,13.32,0.066,123.9
2020-06-21T02:19:03,42.805,6.029,0.043,-0.03,-0.01,104.0,104.0,101.0,13.4,1505.3,326.6,-0.7,1.8,2470.298,13.32,0.052,124.9
2020-06-21T02:22:03,42.805,6.029,0.042,-0.022,0.0,104.0,106.0,101.0,13.4,1505.3,324.3,-0.7,1.8,2470.264,13.32,0.047,117.6
2020-06-21T02:25:03,42.805,6.029,0.066,-0.033,-0.002,104.0,106.0,101.0,13.3,1505.3,325.2,-0.7,1.8,2470.26,13.32,0.073,116.6
2020-06-21T02:28:03,42.805,6.029,0.034,-0.033,-0.02,104.0,106.0,102.0,13.4,1505.3,325.0,-0.7,1.8,2470.3,13.32,0.047,134.1
2020-06-21T02:31:03,42.805,6.029,0.045,-0.024,0.025,105.0,105.0,101.0,13.4,1505.3,324.7,-0.7,1.8,2470.326,13.32,0.051,118.1
2020-06-21T02:34:03,42.805,6.029,0.043,-0.021,-0.014,104.0,106.0,102.0,13.4,1505.3,323.6,-0.7,1.8,2470.278,13.32,0.047,116.0
2020-06-21T02:37:03,42.805,6.029,0.043,-0.034,0.0,103.0,106.0,101.0,13.3,1505.3,328.2,-0.7,1.8,2470.298,13.32,0.054,128.3
2020-06-21T02:40:03,42.805,6.029,0.041,-0.027,-0.019,104.0,105.0,102.0,13.3,1505.3,326.8,-0.7,1.8,2470.308,13.32,0.049,123.4
2020-06-21T02:43:03,42.805,6.029,0.048,-0.024,-0.019,103.0,105.0,102.0,13.3,1505.3,325.2,-0.7,1.8,2470.273,13.32,0.053,116.6
2020-06-21T02:46:03,42.805,6.029,0.054,-0.03,-0.007,103.0,107.0,101.0,13.4,1505.3,326.9,-0.7,1.8,2470.305,13.32,0.061,119.1
2020-06-21T02:49:03,42.805,6.029,0.059,-0.018,0.016,105.0,106.0,101.0,13.4,1505.3,327.3,-0.7,1.8,2470.296,13.32,0.061,107.0
2020-06-21T02:52:03,42.805,6.029,0.047,-0.033,-0.015,104.0,106.0,101.0,13.4,1505.3,328.2,-0.7,1.8,2470.34,13.32,0.057,125.1
2020-06-21T02:55:03,42.805,6.029,0.038,-0.025,-0.003,104.0,105.0,101.0,13.3,1505.3,327.8,-0.7,1.8,2470.302,13.32,0.045,123.3
2020-06-21T02:58:03,42.805,6.029,0.024,-0.027,-0.013,103.0,105.0,101.0,13.3,1505.3,327.6,-0.7,1.8,2470.327,13.32,0.036,138.4
2020-06-21T03:04:03,42.805,6.029,0.052,-0.015,0.001,103.0,105.0,101.0,13.4,1505.2,327.0,-0.7,1.8,2470.409,13.3,0.054,106.1
2020-06-21T03:07:03,42.805,6.029,0.059,-0.018,0.006,103.0,106.0,102.0,13.4,1505.3,326.4,-0.7,1.8,2470.367,13.31,0.061,107.0
2020-06-21T03:10:03,42.805,6.029,0.06,-0.042,-0.016,103.0,106.0,101.0,13.4,1505.3,326.9,-0.7,1.8,2470.339,13.31,0.073,125.0
2020-06-21T03:13:03,42.805,6.029,0.063,-0.032,0.006,103.0,106.0,101.0,13.4,1505.3,325.9,-0.7,1.8,2470.348,13.32,0.07,116.9
2020-06-21T03:16:03,42.805,6.029,0.077,-0.048,-0.003,104.0,105.0,101.0,13.4,1505.3,326.5,-0.7,1.8,2470.341,13.32,0.09,121.9
2020-06-21T03:19:03,42.805,6.029,0.055,-0.015,0.033,106.0,105.0,101.0,13.4,1505.3,323.7,-0.7,1.8,2470.325,13.32,0.057,105.3
2020-06-21T03:22:03,42.805,6.029,0.043,-0.028,-0.005,104.0,106.0,101.0,13.4,1505.3,326.6,-0.7,1.8,2470.338,13.32,0.051,123.1
2020-06-21T03:25:03,42.805,6.029,0.06,-0.028,-0.017,104.0,106.0,101.0,13.4,1505.3,325.9,-0.7,1.8,2470.328,13.32,0.066,115.0
2020-06-21T03:28:03,42.805,6.029,0.057,-0.011,-0.009,105.0,106.0,101.0,13.4,1505.3,324.7,-0.7,1.8,2470.285,13.32,0.058,100.9
2020-06-21T03:31:03,42.805,6.029,0.059,-0.026,0.0,103.0,105.0,101.0,13.3,1505.3,323.8,-0.7,1.8,2470.286,13.32,0.064,113.8
2020-06-21T03:34:03,42.805,6.029,0.046,-0.006,-0.003,104.0,105.0,101.0,13.4,1505.3,325.0,-0.7,1.8,2470.338,13.32,0.046,97.4
2020-06-21T03:37:03,42.805,6.029,0.075,-0.012,0.014,104.0,107.0,101.0,13.4,1505.3,326.7,-0.7,1.8,2470.344,13.32,0.075,99.1
2020-06-21T03:40:03,42.805,6.029,0.076,-0.025,-0.003,103.0,105.0,101.0,13.4,1505.3,326.3,-0.7,1.8,2470.316,13.32,0.08,108.2
2020-06-21T03:43:03,42.805,6.029,0.074,-0.021,-0.01,104.0,106.0,100.0,13.4,1505.3,325.7,-0.7,1.9,2470.332,13.32,0.076,105.8
2020-06-21T03:46:03,42.805,6.029,0.021,-0.044,-0.002,104.0,106.0,101.0,13.4,1505.3,328.1,-0.7,1.9,2470.346,13.32,0.048,154.5
2020-06-21T03:49:03,42.805,6.029,0.029,-0.022,-0.029,102.0,105.0,101.0,13.4,1505.3,327.6,-0.7,1.8,2470.32,13.32,0.036,127.2
2020-06-21T03:52:03,42.805,6.029,0.018,-0.023,-0.02,103.0,105.0,101.0,13.4,1505.3,324.6,-0.7,1.8,2470.324,13.32,0.029,142.0
2020-06-21T03:55:03,42.805,6.029,0.045,-0.008,-0.05,103.0,107.0,101.0,13.4,1505.3,325.2,-0.7,1.8,2470.359,13.32,0.045,100.1
2020-06-21T03:58:03,42.805,6.029,0.04,-0.012,0.001,103.0,106.0,102.0,13.4,1505.3,323.4,-0.7,1.8,2470.346,13.32,0.041,106.7
2020-06-21T04:04:03,42.805,6.029,0.035,-0.027,-0.013,105.0,107.0,101.0,13.4,1505.2,326.9,-0.8,1.8,2470.356,13.3,0.044,127.7
2020-06-21T04:07:03,42.805,6.029,0.042,-0.001,0.02,105.0,107.0,101.0,13.4,1505.3,327.4,-0.7,1.8,2470.366,13.31,0.042,91.4
2020-06-21T04:10:03,42.805,6.029,0.049,-0.048,-0.037,104.0,105.0,103.0,13.4,1505.3,328.2,-0.7,1.8,2470.365,13.31,0.068,134.4
2020-06-21T04:13:03,42.805,6.029,0.036,-0.013,-0.01,104.0,107.0,101.0,13.4,1505.3,324.7,-0.7,1.8,2470.363,13.32,0.038,109.9
2020-06-21T04:16:03,42.805,6.029,0.052,-0.033,-0.029,103.0,106.0,101.0,13.4,1505.3,324.2,-0.7,1.8,2470.373,13.32,0.061,122.4
2020-06-21T04:19:03,42.805,6.029,0.054,-0.029,-0.008,105.0,106.0,101.0,13.3,1505.3,328.1,-0.7,1.8,2470.33,13.32,0.061,118.2
2020-06-21T04:22:03,42.805,6.029,0.074,-0.027,-0.007,103.0,106.0,101.0,13.4,1505.3,325.1,-0.7,1.9,2470.342,13.32,0.078,110.0
2020-06-21T04:25:03,42.805,6.029,0.047,-0.032,0.006,104.0,105.0,101.0,13.4,1505.3,326.4,-0.7,1.8,2470.364,13.32,0.056,124.2
2020-06-21T04:28:03,42.805,6.029,0.053,-0.021,0.006,103.0,105.0,101.0,13.4,1505.3,323.0,-0.7,1.8,2470.376,13.32,0.057,111.6
2020-06-21T04:31:03,42.805,6.029,0.057,-0.03,-0.004,104.0,105.0,101.0,13.4,1505.3,326.7,-0.7,1.9,2470.35,13.32,0.064,117.8
2020-06-21T04:34:03,42.805,6.029,0.052,-0.016,0.0,103.0,106.0,101.0,13.4,1505.3,326.9,-0.7,1.8,2470.374,13.32,0.054,107.1
2020-06-21T04:37:03,42.805,6.029,0.055,-0.023,0.008,103.0,106.0,101.0,13.3,1505.3,324.2,-0.6,1.8,2470.333,13.32,0.059,112.7
2020-06-21T04:40:03,42.805,6.029,0.045,-0.034,-0.028,103.0,105.0,101.0,13.3,1505.3,328.4,-0.7,1.8,2470.355,13.32,0.056,127.1
2020-06-21T04:43:03,42.805,6.029,0.065,-0.026,-0.007,105.0,104.0,101.0,13.4,1505.3,326.6,-0.7,1.9,2470.34,13.32,0.07,111.8
2020-06-21T04:46:03,42.805,6.029,0.042,-0.021,-0.015,105.0,106.0,100.0,13.3,1505.3,326.5,-0.8,1.8,2470.365,13.32,0.046,116.6
2020-06-21T04:49:03,42.805,6.029,0.045,-0.014,0.037,103.0,105.0,102.0,13.4,1505.3,324.2,-0.7,1.8,2470.369,13.32,0.047,107.3
2020-06-21T04:52:03,42.805,6.029,0.059,-0.033,-0.031,104.0,106.0,99.0,13.4,1505.3,326.8,-0.7,1.8,2470.363,13.32,0.067,119.2
2020-06-21T04:55:03,42.805,6.029,0.055,-0.044,0.016,104.0,105.0,102.0,13.4,1505.3,325.2,-0.7,1.8,2470.388,13.32,0.07,128.7
2020-06-21T04:58:03,42.805,6.029,0.036,-0.028,-0.009,103.0,105.0,101.0,13.4,1505.3,324.4,-0.7,1.8,2470.393,13.32,0.045,127.9
2020-06-21T05:04:03,42.805,6.029,0.063,-0.008,0.016,104.0,105.0,100.0,13.4,1505.2,326.3,-0.8,1.8,2470.424,13.3,0.063,97.2
2020-06-21T05:07:03,42.805,6.029,0.057,-0.055,0.006,105.0,104.0,102.0,13.3,1505.3,325.5,-0.7,1.8,2470.382,13.31,0.079,134.0
2020-06-21T05:10:03,42.805,6.029,0.057,-0.035,0.003,103.0,107.0,101.0,13.4,1505.3,324.6,-0.7,1.9,2470.393,13.31,0.066,121.6
2020-06-21T05:13:03,42.805,6.029,0.04,-0.037,-0.017,105.0,106.0,100.0,13.4,1505.3,324.9,-0.7,1.8,2470.392,13.32,0.054,132.8
2020-06-21T05:16:03,42.805,6.029,0.061,-0.033,-0.032,104.0,107.0,99.0,13.4,1505.3,326.3,-0.7,1.8,2470.418,13.32,0.069,118.4
2020-06-21T05:19:03,42.805,6.029,0.062,-0.029,-0.008,103.0,106.0,102.0,13.4,1505.3,323.6,-0.7,1.8,2470.39,13.32,0.068,115.1
2020-06-21T05:22:03,42.805,6.029,0.069,-0.016,-0.006,104.0,106.0,101.0,13.3,1505.3,327.0,-0.7,1.8,2470.401,13.32,0.07,103.1
2020-06-21T05:25:03,42.805,6.029,0.064,-0.019,-0.016,104.0,106.0,101.0,13.3,1505.3,326.4,-0.7,1.8,2470.418,13.32,0.066,106.5
2020-06-21T05:28:03,42.805,6.029,0.046,-0.019,0.0,103.0,106.0,102.0,13.3,1505.3,328.1,-0.7,1.8,2470.439,13.32,0.049,112.4
2020-06-21T05:31:03,42.805,6.029,0.033,-0.028,-0.025,105.0,105.0,101.0,13.3,1505.3,327.3,-0.7,1.8,2470.405,13.32,0.043,130.3
2020-06-21T05:34:03,42.805,6.029,0.074,-0.017,0.003,105.0,106.0,102.0,13.4,1505.3,328.1,-0.7,1.8,2470.439,13.32,0.075,102.9
2020-06-21T05:37:03,42.805,6.029,0.048,-0.034,-0.013,105.0,105.0,101.0,13.3,1505.3,325.8,-0.8,1.8,2470.378,13.32,0.058,125.3
2020-06-21T05:40:03,42.805,6.029,0.033,-0.012,-0.012,105.0,107.0,101.0,13.4,1505.3,324.2,-0.7,1.8,2470.407,13.32,0.035,110.0
2020-06-21T05:43:03,42.805,6.029,0.053,-0.02,-0.018,103.0,105.0,102.0,13.4,1505.3,325.0,-0.7,1.8,2470.418,13.32,0.056,110.7
2020-06-21T05:49:03,42.805,6.029,0.042,0.008,0.03,105.0,106.0,102.0,13.3,1505.2,323.4,-0.7,1.8,2470.484,13.3,0.042,79.2
2020-06-21T05:52:03,42.805,6.029,0.046,-0.007,-0.001,106.0,105.0,101.0,13.4,1505.3,324.2,-0.7,1.8,2470.417,13.31,0.046,98.7
2020-06-21T05:55:03,42.805,6.029,0.056,-0.022,-0.022,105.0,106.0,102.0,13.4,1505.3,323.0,-0.7,1.8,2470.469,13.31,0.06,111.4
2020-06-21T05:58:03,42.805,6.029,0.066,-0.02,0.002,104.0,106.0,102.0,13.4,1505.3,326.8,-0.7,1.8,2470.415,13.32,0.068,106.9
2020-06-21T06:04:04,42.805,6.029,0.065,-0.02,0.007,104.0,107.0,102.0,13.4,1505.2,326.9,-0.7,1.8,2470.498,13.3,0.068,107.1
2020-06-21T06:07:03,42.805,6.029,0.051,-0.017,0.001,104.0,107.0,102.0,13.4,1505.3,324.3,-0.7,1.8,2470.449,13.31,0.053,108.4
2020-06-21T06:10:03,42.805,6.029,0.056,-0.028,0.014,105.0,108.0,101.0,13.3,1505.3,324.7,-0.7,1.8,2470.439,13.31,0.062,116.6
2020-06-21T06:13:03,42.805,6.029,0.045,-0.022,0.01,104.0,106.0,101.0,13.4,1505.3,327.6,-0.7,1.9,2470.411,13.32,0.05,116.1
2020-06-21T06:16:03,42.805,6.029,0.052,-0.024,-0.012,105.0,106.0,102.0,13.3,1505.3,323.8,-0.7,1.8,2470.455,13.32,0.057,114.8
2020-06-21T06:19:03,42.805,6.029,0.07,-0.023,0.015,107.0,106.0,102.0,13.3,1505.3,325.7,-0.7,1.8,2470.447,13.32,0.073,108.2
2020-06-21T06:22:03,42.805,6.029,0.057,-0.008,-0.023,105.0,106.0,102.0,13.4,1505.3,327.5,-0.7,1.8,2470.442,13.32,0.057,98.0
2020-06-21T06:25:03,42.805,6.029,0.048,-0.018,0.004,104.0,106.0,101.0,13.3,1505.3,324.8,-0.7,1.9,2470.419,13.32,0.051,110.6
2020-06-21T06:28:03,42.805,6.029,0.022,-0.014,-0.025,106.0,107.0,101.0,13.3,1505.3,324.5,-0.7,1.8,2470.44,13.32,0.026,122.5
2020-06-21T06:31:03,42.805,6.029,0.05,-0.025,-0.012,105.0,109.0,103.0,13.4,1505.3,327.5,-0.8,1.8,2470.443,13.32,0.055,116.6
2020-06-21T06:34:03,42.805,6.029,0.053,-0.025,-0.005,104.0,107.0,101.0,13.4,1505.3,323.5,-0.7,1.8,2470.377,13.32,0.058,115.3
2020-06-21T06:37:03,42.805,6.029,0.036,-0.029,-0.03,106.0,106.0,103.0,13.4,1505.3,326.9,-0.7,1.8,2470.399,13.32,0.046,128.9
2020-06-21T06:40:03,42.805,6.029,0.05,-0.017,-0.025,107.0,107.0,101.0,13.3,1505.3,328.3,-0.7,1.8,2470.424,13.32,0.052,108.8
2020-06-21T06:43:03,42.805,6.029,0.049,-0.014,-0.008,106.0,107.0,102.0,13.3,1505.3,325.2,-0.7,1.8,2470.424,13.32,0.05,105.9
2020-06-21T06:46:03,42.805,6.029,0.061,-0.016,0.003,106.0,107.0,101.0,13.3,1505.3,323.3,-0.7,1.8,2470.404,13.32,0.063,104.7
2020-06-21T06:49:03,42.805,6.029,0.047,-0.021,-0.045,105.0,106.0,103.0,13.3,1505.3,326.7,-0.7,1.8,2470.42,13.32,0.051,114.1
2020-06-21T06:52:03,42.805,6.029,0.024,-0.013,-0.041,105.0,106.0,101.0,13.4,1505.3,324.9,-0.7,1.9,2470.404,13.32,0.027,118.4
2020-06-21T06:55:03,42.805,6.029,0.069,-0.026,0.004,104.0,106.0,102.0,13.3,1505.3,326.7,-0.7,1.8,2470.461,13.32,0.073,110.6
2020-06-21T06:58:03,42.805,6.029,0.028,-0.005,-0.001,105.0,107.0,103.0,13.4,1505.3,325.3,-0.7,1.9,2470.421,13.32,0.028,100.1
2020-06-21T07:04:03,42.805,6.029,0.05,-0.011,0.021,104.0,106.0,102.0,13.4,1505.2,323.0,-0.8,1.8,2470.443,13.3,0.051,102.4
2020-06-21T07:07:03,42.805,6.029,0.059,-0.015,-0.025,106.0,107.0,102.0,13.3,1505.3,323.0,-0.7,1.8,2470.426,13.31,0.06,104.3
2020-06-21T07:10:03,42.805,6.029,0.054,-0.01,-0.017,105.0,107.0,102.0,13.3,1505.3,323.2,-0.7,1.9,2470.422,13.31,0.054,100.5
2020-06-21T07:13:03,42.805,6.029,0.049,-0.03,-0.004,106.0,106.0,103.0,13.3,1505.3,324.9,-0.7,1.8,2470.405,13.32,0.057,121.5
2020-06-21T07:16:03,42.805,6.029,0.028,-0.021,-0.018,105.0,106.0,101.0,13.3,1505.3,326.7,-0.7,1.9,2470.416,13.32,0.035,126.9
2020-06-21T07:19:03,42.805,6.029,0.041,-0.014,-0.023,105.0,106.0,101.0,13.4,1505.3,325.4,-0.7,1.8,2470.416,13.32,0.043,108.9
2020-06-21T07:22:03,42.805,6.029,0.049,-0.018,-0.011,104.0,106.0,103.0,13.4,1505.3,325.2,-0.7,1.8,2470.403,13.32,0.052,110.2
2020-06-21T07:25:03,42.805,6.029,0.03,-0.013,-0.016,105.0,107.0,101.0,13.4,1505.3,327.1,-0.7,1.8,2470.447,13.32,0.032,113.4
2020-06-21T07:28:03,42.805,6.029,0.052,-0.02,0.001,105.0,108.0,102.0,13.4,1505.3,325.9,-0.7,1.8,2470.407,13.32,0.055,111.0
2020-06-21T07:31:03,42.805,6.029,0.048,-0.013,-0.023,106.0,108.0,101.0,13.4,1505.3,326.1,-0.7,1.8,2470.41,13.32,0.049,105.2
2020-06-21T07:34:03,42.805,6.029,0.068,-0.006,0.018,106.0,107.0,102.0,13.4,1505.3,326.5,-0.7,1.8,2470.429,13.32,0.068,95.0
2020-06-21T07:37:03,42.805,6.029,0.034,-0.003,-0.024,104.0,108.0,102.0,13.4,1505.3,326.5,-0.7,1.8,2470.426,13.32,0.034,95.0
2020-06-21T07:40:03,42.805,6.029,0.022,-0.015,0.031,106.0,108.0,101.0,13.3,1505.3,325.2,-0.7,1.8,2470.411,13.32,0.026,124.3
2020-06-21T07:43:03,42.805,6.029,0.052,-0.001,-0.01,105.0,107.0,102.0,13.4,1505.3,324.5,-0.7,1.8,2470.396,13.32,0.052,91.1
2020-06-21T07:46:03,42.805,6.029,0.032,-0.024,-0.03,105.0,107.0,103.0,13.3,1505.3,325.2,-0.7,1.8,2470.406,13.32,0.04,126.9
2020-06-21T07:49:03,42.805,6.029,0.052,0.002,0.015,106.0,109.0,102.0,13.4,1505.3,327.1,-0.7,1.9,2470.41,13.32,0.052,87.8
2020-06-21T07:52:03,42.805,6.029,0.032,-0.01,-0.021,106.0,108.0,102.0,13.3,1505.3,322.6,-0.7,1.8,2470.407,13.32,0.033,107.4
2020-06-21T07:55:03,42.805,6.029,0.066,-0.009,0.005,105.0,109.0,102.0,13.4,1505.3,326.0,-0.7,1.8,2470.4,13.32,0.066,97.8
2020-06-21T07:58:03,42.805,6.029,0.037,-0.002,-0.014,106.0,107.0,102.0,13.3,1505.3,325.5,-0.7,1.8,2470.4,13.32,0.037,93.1
2020-06-21T08:04:03,42.805,6.029,0.041,-0.01,-0.005,105.0,107.0,102.0,13.4,1505.2,326.6,-0.8,1.8,2470.428,13.3,0.042,103.7
2020-06-21T08:07:03,42.805,6.029,0.046,-0.023,-0.004,104.0,106.0,103.0,13.3,1505.3,324.4,-0.7,1.8,2470.432,13.31,0.051,116.6
2020-06-21T08:10:03,42.805,6.029,0.062,-0.022,-0.034,104.0,108.0,102.0,13.4,1505.3,323.0,-0.7,1.8,2470.396,13.31,0.065,109.5
2020-06-21T08:13:03,42.805,6.029,0.03,-0.02,0.013,104.0,106.0,102.0,13.3,1505.3,327.7,-0.7,1.8,2470.403,13.32,0.036,123.7
2020-06-21T08:16:03,42.805,6.029,0.045,-0.026,-0.007,105.0,107.0,102.0,13.3,1505.3,324.5,-0.7,1.8,2470.382,13.32,0.051,120.0
2020-06-21T08:19:03,42.805,6.029,0.06,-0.012,-0.003,106.0,107.0,103.0,13.4,1505.3,324.9,-0.7,1.8,2470.397,13.32,0.061,101.3
2020-06-21T08:22:03,42.805,6.029,0.03,-0.01,-0.009,105.0,107.0,102.0,13.3,1505.3,325.1,-0.7,1.8,2470.406,13.32,0.031,108.4
2020-06-21T08:25:03,42.805,6.029,0.042,-0.009,-0.01,105.0,106.0,102.0,13.4,1505.3,324.6,-0.7,1.8,2470.413,13.32,0.042,102.1
2020-06-21T08:28:03,42.805,6.029,0.066,-0.022,0.025,105.0,106.0,101.0,13.4,1505.3,325.6,-0.7,1.9,2470.386,13.32,0.069,108.4
2020-06-21T08:31:03,42.805,6.029,0.037,-0.012,-0.021,104.0,107.0,102.0,13.4,1505.3,328.2,-0.7,1.8,2470.394,13.32,0.038,108.0
2020-06-21T08:34:03,42.805,6.029,0.048,-0.003,-0.005,105.0,107.0,102.0,13.4,1505.3,326.7,-0.7,1.8,2470.396,13.32,0.048,93.6
2020-06-21T08:37:03,42.805,6.029,0.045,-0.007,0.002,106.0,107.0,102.0,13.4,1505.3,327.1,-0.7,1.8,2470.393,13.32,0.045,98.8
2020-06-21T08:40:03,42.805,6.029,0.041,-0.009,-0.008,105.0,108.0,102.0,13.4,1505.3,323.9,-0.7,1.8,2470.364,13.32,0.041,102.4
2020-06-21T08:43:03,42.805,6.029,0.028,0.0,-0.016,106.0,107.0,102.0,13.4,1505.3,325.5,-0.7,1.8,2470.408,13.32,0.028,90.0
2020-06-21T08:46:03,42.805,6.029,0.05,-0.014,0.008,105.0,107.0,102.0,13.4,1505.3,325.1,-0.7,1.8,2470.389,13.32,0.051,105.6
2020-06-21T08:49:03,42.805,6.029,0.05,-0.012,0.001,105.0,108.0,102.0,13.4,1505.3,324.7,-0.7,1.8,2470.406,13.32,0.051,103.5
2020-06-21T08:52:03,42.805,6.029,0.05,-0.012,0.006,105.0,107.0,102.0,13.3,1505.3,327.4,-0.7,1.8,2470.376,13.32,0.051,103.5
2020-06-21T08:55:03,42.805,6.029,0.057,-0.017,0.013,105.0,106.0,102.0,13.4,1505.3,327.1,-0.7,1.9,2470.304,13.32,0.059,106.6
2020-06-21T08:58:03,42.805,6.029,0.035,-0.027,-0.001,105.0,106.0,101.0,13.4,1505.3,328.0,-0.7,1.8,2470.374,13.32,0.044,127.7
2020-06-21T09:04:03,42.805,6.029,0.051,-0.029,-0.006,105.0,108.0,102.0,13.4,1505.2,326.8,-0.8,1.8,2470.423,13.3,0.058,119.6
2020-06-21T09:07:03,42.805,6.029,0.025,-0.02,-0.008,106.0,105.0,102.0,13.4,1505.3,327.3,-0.7,1.8,2470.377,13.31,0.032,128.7
2020-06-21T09:10:03,42.805,6.029,0.065,-0.01,-0.014,103.0,106.0,102.0,13.4,1505.3,324.8,-0.7,1.8,2470.374,13.31,0.065,98.7
2020-06-21T09:13:03,42.805,6.029,0.029,-0.019,0.016,105.0,107.0,102.0,13.4,1505.3,327.7,-0.7,1.8,2470.38,13.32,0.034,123.2
2020-06-21T09:16:03,42.805,6.029,0.039,-0.015,0.004,104.0,107.0,102.0,13.4,1505.3,325.1,-0.7,1.8,2470.361,13.32,0.041,111.0
2020-06-21T09:19:03,42.805,6.029,0.057,-0.039,-0.025,105.0,107.0,101.0,13.4,1505.3,324.6,-0.7,1.8,2470.347,13.32,0.069,124.4
2020-06-21T09:22:03,42.805,6.029,0.053,-0.024,-0.008,104.0,106.0,102.0,13.4,1505.3,324.4,-0.7,1.9,2470.387,13.32,0.058,114.4
2020-06-21T09:25:03,42.805,6.029,0.071,0.008,-0.004,105.0,106.0,102.0,13.4,1505.3,326.8,-0.7,1.8,2470.346,13.32,0.071,83.6
2020-06-21T09:28:03,42.805,6.029,0.027,-0.006,-0.014,103.0,108.0,100.0,13.4,1505.3,324.2,-0.7,1.8,2470.375,13.32,0.027,102.5
2020-06-21T09:31:03,42.805,6.029,0.045,-0.017,-0.044,105.0,107.0,101.0,13.3,1505.3,324.8,-0.7,1.8,2470.361,13.32,0.048,110.7
2020-06-21T09:34:03,42.805,6.029,0.045,-0.013,-0.011,105.0,106.0,102.0,13.4,1505.3,323.2,-0.7,1.8,2470.375,13.32,0.046,106.1
2020-06-21T09:37:03,42.805,6.029,0.041,-0.011,-0.028,105.0,108.0,102.0,13.4,1505.3,326.3,-0.7,1.8,2470.349,13.32,0.042,105.0
2020-06-21T09:40:03,42.805,6.029,0.026,-0.011,-0.018,105.0,107.0,101.0,13.4,1505.3,323.4,-0.7,1.8,2470.381,13.32,0.028,112.9
2020-06-21T09:43:03,42.805,6.029,0.05,-0.025,0.0,104.0,109.0,103.0,13.3,1505.3,326.3,-0.7,1.8,2470.37,13.32,0.055,116.6
2020-06-21T09:46:03,42.805,6.029,0.048,-0.016,-0.014,105.0,109.0,102.0,13.4,1505.3,325.4,-0.7,1.8,2470.338,13.32,0.05,108.4
2020-06-21T09:49:03,42.805,6.029,0.047,-0.014,-0.007,104.0,107.0,101.0,13.3,1505.3,325.6,-0.7,1.9,2470.33,13.32,0.049,106.6
2020-06-21T09:52:03,42.805,6.029,0.051,-0.012,-0.03,104.0,108.0,102.0,13.3,1505.3,326.6,-0.7,1.8,2470.348,13.32,0.052,103.2
2020-06-21T09:55:03,42.805,6.029,0.035,-0.009,-0.005,106.0,106.0,101.0,13.3,1505.3,325.6,-0.7,1.8,2470.356,13.32,0.036,104.4
2020-06-21T09:58:03,42.805,6.029,0.051,-0.024,-0.002,104.0,107.0,101.0,13.4,1505.3,327.3,-0.7,1.9,2470.345,13.32,0.056,115.2